[[{"header":{"parameterUnit":"m.s-1","parameterCategory":1,"la1":30.2991,"la2":30.254,"lo1":-89.0895,"lo2":-89.0444,"dy":0.0017,"dx":0.0017,"nx":28,"ny":28,"refTime":"2024-05-09T09:00:00:Z","depth":0,"parameterNumber":2,"parameterNumberName":"U-component_of_WINDS"},"data":[0,0,0,0,0,0,0,0,0,0,0,0,0,0,0,0,0,0,0,0,0,0,0,0,0,0,0,0,0,0,0,0,0,0,0,0,0,0,0,0,0,0,0,0,0,0,0,0,0,0,0,0,0,0,0,0,0,0,-1.7618,-1.7618,0,-1.7682,-1.7683,-1.7684,-1.7638,-1.7636,-1.7634,-1.7632,-1.7703,-1.7706,-1.771,0,0,0,0,0,0,0,0,0,0,0,0,0,-1.7459,-1.7462,-1.7618,-1.7618,-1.7619,-1.7682,-1.7683,-1.7684,-1.7639,-1.7636,-1.7634,-1.7631,-1.7702,-1.7706,-1.7711,0,0,0,0,0,0,0,0,0,0,0,0,0,-1.7526,-1.7463,-1.7618,-1.7604,-1.7604,-1.7682,-1.7683,-1.7684,-1.7639,-1.7636,-1.7633,-1.763,-1.77,-1.7706,-1.7711,-1.7807,0,0,-1.7728,-1.7731,0,0,0,0,0,0,0,0,-1.7522,-1.7532,-1.7605,-1.7605,-1.7605,-1.7649,-1.7653,-1.7726,-1.764,-1.7626,-1.7632,-1.7629,-1.7688,-1.7694,-1.7713,-1.7811,-1.7814,-1.7729,-1.7732,-1.7735,-1.7736,0,0,0,0,0,0,0,-1.7518,-1.7529,-1.7643,-1.7606,-1.7606,-1.7596,-1.7602,-1.7666,-1.7673,-1.7627,-1.7624,-1.7632,-1.7687,-1.7708,-1.7714,-1.7815,-1.7729,-1.7734,-1.7737,-1.774,-1.7994,-1.7998,0,0,0,0,0,0,-1.7514,-1.7526,-1.7641,-1.7645,-1.7555,-1.7601,-1.7608,-1.7638,-1.7672,-1.7675,-1.7634,-1.7629,-1.77,-1.7708,-1.7717,-1.7831,-1.7735,-1.774,-1.7743,-1.7991,-1.7995,-1.7999,0,0,0,0,0,0,-1.7511,-1.7525,-1.7639,-1.7585,-1.7598,-1.7607,-1.7641,-1.7641,-1.7661,-1.7678,-1.7679,-1.7654,-1.7697,-1.7709,-1.7785,-1.7833,-1.7743,-1.7748,-1.7987,-1.7992,-1.7997,-1.8062,0,0,0,0,0,0,-1.7506,-1.7524,-1.756,-1.7586,-1.7601,-1.7705,-1.7644,-1.7644,-1.7671,-1.7665,-1.7697,-1.7699,-1.7696,-1.7777,-1.779,-1.7839,-1.7752,-1.7983,-1.7989,-1.7995,-1.8055,-1.8068,-1.8079,0,0,0,0,0,-1.7501,-1.7576,-1.7562,-1.7576,-1.7646,-1.7708,-1.7717,-1.771,-1.7675,-1.7712,-1.7722,-1.7698,-1.7826,-1.7785,-1.78,-1.7851,-1.798,-1.7988,-1.7995,-1.805,-1.8066,-1.8079,0,0,0,0,0,0,-1.7557,-1.758,-1.7563,-1.7649,-1.7677,-1.77,-1.7746,-1.7727,-1.7766,-1.7759,-1.7751,-1.7758,-1.7838,-1.7852,-1.7806,-1.7946,-1.7897,-1.7908,-1.7934,-1.7949,-1.7961,-1.7956,-1.7757,0,0,0,0,0,-1.758,-1.7626,-1.7644,-1.7718,-1.7732,-1.7737,-1.7763,-1.7756,-1.7784,-1.7796,-1.7812,-1.7842,-1.7889,-1.792,-1.7964,-1.8057,-1.8063,-1.81,-1.8112,-1.8122,-1.8132,-1.8182,-1.8198,-1.8024,-1.8024,-1.8023,0,0,-1.7627,-1.7644,-1.7675,-1.773,-1.775,-1.78,-1.7747,-1.7802,-1.7839,-1.7805,-1.7877,-1.789,-1.7923,-1.8008,-1.8046,-1.8022,-1.8181,-1.8131,-1.8139,-1.8144,-1.8191,-1.8208,-1.8223,-1.8029,-1.8028,-1.8027,0,0,-1.7737,-1.7755,-1.7819,-1.784,-1.7871,-1.7873,-1.7888,-1.7914,-1.7921,-1.7993,-1.7968,-1.8013,-1.8093,-1.8117,-1.814,-1.826,-1.8239,-1.8274,-1.8338,-1.8387,-1.8401,-1.8413,-1.8455,-1.847,-1.8284,-1.8284,-1.8284,0,-1.7792,-1.7865,-1.7854,-1.7911,-1.7936,-1.7906,-1.797,-1.7992,-1.8036,-1.8055,-1.8027,-1.8127,-1.8147,-1.8237,-1.8266,-1.8285,-1.8303,-1.8271,-1.8399,-1.8411,-1.8422,-1.8463,-1.8479,-1.8288,-1.8288,-1.8287,-1.8287,0,-1.7931,-1.7981,-1.8029,-1.8071,-1.8101,-1.8162,-1.8161,-1.8194,-1.8183,-1.8189,-1.8263,-1.8286,-1.8333,-1.8354,-1.8346,-1.8443,-1.8427,-1.84,-1.835,-1.8443,-1.8481,-1.8496,-1.8294,-1.8292,-1.8291,-1.829,0,0,-1.8079,-1.8113,-1.8131,-1.8149,-1.8181,-1.8221,-1.828,-1.8325,-1.8353,-1.8384,-1.8434,-1.8503,-1.8477,-1.8503,-1.8497,-1.854,-1.8632,-1.8507,-1.8507,-1.8529,-1.8742,-1.8762,-1.878,-1.8619,-1.8622,-1.8624,-1.8739,0,-1.8192,-1.8293,-1.8285,-1.8382,-1.8429,-1.84,-1.8452,-1.8478,-1.8484,-1.8526,-1.8534,-1.8583,-1.8545,-1.856,-1.8602,-1.8612,-1.8675,-1.8604,-1.8666,-1.8669,-1.8659,-1.88,-1.8822,-1.8929,-1.8753,-1.8756,-1.8758,0,-1.8336,-1.8371,-1.8471,-1.8495,-1.8514,-1.8561,-1.8601,-1.8641,-1.867,-1.8672,-1.87,-1.8686,-1.8747,-1.8696,-1.878,-1.8732,-1.8757,-1.8766,-1.877,-1.8776,-1.8719,-1.8809,-1.8963,-1.8979,-1.8781,-1.8779,-1.8778,0,-1.8434,-1.8506,-1.8576,-1.8592,-1.8622,-1.8655,-1.8669,-1.8694,-1.8722,-1.8757,-1.8775,-1.8818,-1.8842,-1.8876,-1.8875,-1.8838,-1.896,-1.8909,-1.8964,-1.8964,-1.8991,-1.899,-1.9151,-1.9008,-1.9008,-1.9007,-1.9007,0,-1.856,-1.8623,-1.862,-1.8663,-1.8732,-1.8723,-1.8793,-1.8803,-1.8826,-1.8871,-1.885,-1.8893,-1.8888,-1.8932,-1.8931,-1.9001,-1.9012,-1.9016,-1.9015,-1.9018,-1.9017,-1.9034,-1.9027,-1.9012,-1.9011,-1.901,-1.9009,0,-1.8682,-1.8682,-1.8756,-1.8777,-1.8784,-1.8834,-1.8853,-1.8894,-1.8898,-1.8956,-1.8969,-1.8976,-1.9027,-1.9028,-1.9087,-1.9086,-1.9171,-1.9162,-1.9161,-1.9159,-1.9214,-1.9209,-1.9392,-1.9416,-1.9257,-1.9259,-1.926,0,-1.8762,-1.881,-1.8835,-1.8863,-1.8879,-1.8924,-1.8951,-1.8944,-1.8974,-1.9009,-1.9046,-1.9094,-1.9132,-1.9214,-1.9225,-1.927,-1.9262,-1.9323,-1.9268,-1.9269,-1.9263,-1.926,-1.9264,-1.9334,-1.9335,-1.9337,-1.9338,0,-1.8905,-1.8902,-1.8942,-1.8981,-1.9014,-1.9045,-1.9074,-1.9099,-1.9095,-1.913,-1.9179,-1.9209,-1.9267,-1.9315,-1.9358,-1.9374,-1.9356,-1.9355,-1.937,-1.9373,-1.937,-1.9372,-1.919,-1.9351,-1.9349,-1.9349,-1.9348,-1.9347,-1.9008,-1.9049,-1.9073,-1.9117,-1.9138,-1.9165,-1.9204,-1.9213,-1.9254,-1.93,-1.9294,-1.935,-1.9377,-1.9432,-1.9452,-1.9496,-1.9475,-1.9497,-1.9503,-1.9508,-1.9514,-1.9363,-1.9504,-1.9504,-1.9503,-1.9503,-1.9503,0,-1.915,-1.9163,-1.9204,-1.9244,-1.928,-1.9258,-1.9288,-1.932,-1.9369,-1.9395,-1.9432,-1.9489,-1.9536,-1.9551,-1.9596,-1.9628,-1.9621,-1.964,-1.9638,-1.9642,-1.953,-1.9512,-1.9645,-1.9645,-1.9645,-1.9645,-1.9645,-1.9645,-1.9227,-1.9294,-1.9295,-1.9372,-1.9386,-1.9439,-1.9458,-1.9483,-1.9504,-1.9569,-1.9606,-1.9615,-1.9637,-1.9683,-1.9725,-1.9728,-1.9746,-1.9769,-1.9769,-1.9664,-1.965,-1.9636,-1.9619,-1.9773,-1.9773,-1.9876,-1.9877,-1.9878]},{"header":{"parameterUnit":"m.s-1","parameterCategory":1,"la1":30.2991,"la2":30.254,"lo1":-89.0895,"lo2":-89.0444,"dy":0.0017,"dx":0.0017,"nx":28,"ny":28,"refTime":"2024-05-09T09:00:00:Z","depth":0,"parameterNumber":3,"parameterNumberName":"V-component_of_WINDS"},"data":[0,0,0,0,0,0,0,0,0,0,0,0,0,0,0,0,0,0,0,0,0,0,0,0,0,0,0,0,0,0,0,0,0,0,0,0,0,0,0,0,0,0,0,0,0,0,0,0,0,0,0,0,0,0,0,0,0,0,-1.9878,-1.9878,0,-1.9874,-1.9874,-1.9874,-1.9839,-1.9838,-1.9838,-1.9837,-1.9833,-1.9833,-1.9834,0,0,0,0,0,0,0,0,0,0,0,0,0,-1.9858,-1.9858,-1.9878,-1.9878,-1.9878,-1.9874,-1.9874,-1.9874,-1.9839,-1.9838,-1.9837,-1.9836,-1.9832,-1.9833,-1.9834,0,0,0,0,0,0,0,0,0,0,0,0,0,-1.9861,-1.9858,-1.9878,-1.986,-1.9859,-1.9874,-1.9874,-1.9874,-1.984,-1.9838,-1.9837,-1.9836,-1.9832,-1.9833,-1.9834,-1.9866,0,0,-1.9837,-1.9838,0,0,0,0,0,0,0,0,-1.9861,-1.9862,-1.9863,-1.9862,-1.986,-1.9856,-1.9865,-1.9871,-1.984,-1.9847,-1.9837,-1.9835,-1.9841,-1.9841,-1.9843,-1.9865,-1.9865,-1.9837,-1.9838,-1.9838,-1.9839,0,0,0,0,0,0,0,-1.9861,-1.9862,-1.9876,-1.9863,-1.9861,-1.9853,-1.9852,-1.9866,-1.9851,-1.9846,-1.9844,-1.9844,-1.984,-1.9843,-1.9843,-1.9865,-1.9837,-1.9838,-1.9839,-1.9839,-1.9914,-1.9915,0,0,0,0,0,0,-1.9863,-1.9862,-1.9877,-1.9876,-1.9857,-1.9854,-1.9853,-1.9858,-1.9851,-1.9849,-1.9845,-1.9842,-1.9841,-1.9842,-1.9843,-1.988,-1.9838,-1.9839,-1.984,-1.9912,-1.9914,-1.9915,0,0,0,0,0,0,-1.9863,-1.9865,-1.9877,-1.9868,-1.9869,-1.9856,-1.9862,-1.9859,-1.9861,-1.985,-1.9847,-1.985,-1.984,-1.9841,-1.986,-1.9879,-1.984,-1.9841,-1.9911,-1.9913,-1.9915,-1.9954,0,0,0,0,0,0,-1.9862,-1.9865,-1.9877,-1.9869,-1.987,-1.9894,-1.9863,-1.986,-1.9863,-1.986,-1.9854,-1.9852,-1.984,-1.9859,-1.9861,-1.988,-1.9841,-1.9909,-1.9912,-1.9914,-1.9951,-1.9958,-1.9963,0,0,0,0,0,-1.9862,-1.9888,-1.9877,-1.9879,-1.9884,-1.9896,-1.9896,-1.9881,-1.9865,-1.9877,-1.9869,-1.9852,-1.9877,-1.9861,-1.9864,-1.9883,-1.9908,-1.9911,-1.9914,-1.9949,-1.9956,-1.9963,0,0,0,0,0,0,-1.9898,-1.9887,-1.9875,-1.9899,-1.9899,-1.989,-1.9904,-1.989,-1.9894,-1.989,-1.9872,-1.9871,-1.9893,-1.989,-1.9873,-1.9913,-1.9889,-1.9893,-1.9915,-1.9922,-1.9928,-1.9929,-1.9842,0,0,0,0,0,-1.9909,-1.9919,-1.9908,-1.9931,-1.9931,-1.9918,-1.9922,-1.9911,-1.9909,-1.9909,-1.9903,-1.9903,-1.991,-1.9916,-1.9922,-1.995,-1.9949,-1.9965,-1.997,-1.9975,-1.9979,-1.9994,-2.0001,-1.9925,-1.9925,-1.9925,0,0,-1.9932,-1.9927,-1.9934,-1.9938,-1.9936,-1.9947,-1.9918,-1.9931,-1.9939,-1.9911,-1.9929,-1.9924,-1.9923,-1.9947,-1.9957,-1.9944,-1.9999,-1.9979,-1.9983,-1.9984,-1.9998,-2.0005,-2.0012,-1.9928,-1.9927,-1.9927,0,0,-1.9979,-1.9976,-1.9995,-1.9993,-1.9991,-1.9982,-1.9986,-1.998,-1.9976,-1.9993,-1.9973,-1.9982,-1.9995,-1.9995,-1.9997,-2.0044,-2.0028,-2.0046,-2.0077,-2.0092,-2.0098,-2.0103,-2.0121,-2.0127,-2.005,-2.005,-2.005,0,-2.0008,-2.0023,-2.0006,-2.002,-2.0023,-1.9998,-2.0018,-2.0017,-2.0017,-2.002,-2.0005,-2.0022,-2.0019,-2.0043,-2.0054,-2.0056,-2.0061,-2.0047,-2.0098,-2.0104,-2.0108,-2.0125,-2.0131,-2.0052,-2.0052,-2.0052,-2.0052,0,-2.0059,-2.007,-2.0086,-2.0086,-2.009,-2.0107,-2.0093,-2.0099,-2.0087,-2.008,-2.0098,-2.0094,-2.0099,-2.0103,-2.0092,-2.0126,-2.0118,-2.0102,-2.0077,-2.0118,-2.0133,-2.0139,-2.0056,-2.0055,-2.0054,-2.0054,0,0,-2.013,-2.0121,-2.0127,-2.0127,-2.0122,-2.0131,-2.0146,-2.0151,-2.0157,-2.0158,-2.0171,-2.0183,-2.0167,-2.0169,-2.0157,-2.0171,-2.0209,-2.0152,-2.0152,-2.0164,-2.0247,-2.026,-2.0268,-2.0198,-2.02,-2.02,-2.0248,0,-2.0176,-2.0202,-2.0187,-2.0216,-2.0226,-2.0202,-2.0216,-2.0215,-2.0208,-2.0216,-2.0208,-2.0218,-2.0196,-2.0197,-2.0209,-2.0202,-2.0226,-2.0198,-2.0211,-2.0212,-2.0213,-2.0276,-2.029,-2.0335,-2.0253,-2.0254,-2.0255,0,-2.0233,-2.0237,-2.0266,-2.026,-2.0264,-2.0276,-2.028,-2.0287,-2.0286,-2.028,-2.0282,-2.0267,-2.0282,-2.0257,-2.0278,-2.026,-2.0264,-2.0261,-2.0262,-2.0264,-2.0237,-2.028,-2.0348,-2.0355,-2.0264,-2.0263,-2.0263,0,-2.0283,-2.0295,-2.0314,-2.0315,-2.0308,-2.0317,-2.0315,-2.0311,-2.0316,-2.0319,-2.0321,-2.0326,-2.0329,-2.0333,-2.032,-2.0303,-2.0343,-2.0317,-2.0339,-2.0339,-2.0349,-2.0349,-2.042,-2.0351,-2.035,-2.035,-2.035,0,-2.0337,-2.0356,-2.0337,-2.0349,-2.0369,-2.0352,-2.0373,-2.0368,-2.0366,-2.0376,-2.0356,-2.0366,-2.0348,-2.0357,-2.0346,-2.0366,-2.0367,-2.0363,-2.036,-2.0365,-2.0366,-2.0369,-2.0365,-2.0352,-2.0352,-2.0351,-2.0351,0,-2.0397,-2.0384,-2.0404,-2.0395,-2.0394,-2.041,-2.0402,-2.0413,-2.0405,-2.0419,-2.0421,-2.0408,-2.0418,-2.0405,-2.0412,-2.0405,-2.0432,-2.0424,-2.0433,-2.0431,-2.0454,-2.0453,-2.0531,-2.054,-2.0464,-2.0464,-2.0465,0,-2.0433,-2.0447,-2.044,-2.0445,-2.0444,-2.0453,-2.0458,-2.0441,-2.0446,-2.0445,-2.0456,-2.0463,-2.0469,-2.0485,-2.0476,-2.0482,-2.0475,-2.0502,-2.0476,-2.0481,-2.0476,-2.0476,-2.0478,-2.0507,-2.0508,-2.0509,-2.051,0,-2.0497,-2.049,-2.0497,-2.0502,-2.0507,-2.051,-2.0511,-2.0517,-2.0499,-2.0506,-2.0515,-2.0519,-2.0527,-2.0535,-2.0539,-2.0536,-2.0521,-2.0518,-2.0523,-2.0529,-2.0534,-2.0533,-2.0449,-2.0516,-2.0516,-2.0515,-2.0515,-2.0515,-2.0547,-2.0558,-2.0556,-2.0564,-2.0563,-2.0564,-2.0574,-2.0567,-2.0574,-2.058,-2.0569,-2.0581,-2.0579,-2.0582,-2.0582,-2.0591,-2.0579,-2.0587,-2.0589,-2.0592,-2.0596,-2.0532,-2.0591,-2.0591,-2.0591,-2.0591,-2.0591,0,-2.0611,-2.0608,-2.0616,-2.0618,-2.0624,-2.0608,-2.0609,-2.0615,-2.0626,-2.0625,-2.0631,-2.0641,-2.0649,-2.0641,-2.0647,-2.0656,-2.0649,-2.0658,-2.0658,-2.0658,-2.0605,-2.06,-2.0664,-2.0664,-2.0664,-2.0664,-2.0664,-2.0664,-2.0646,-2.0665,-2.0658,-2.0676,-2.0673,-2.0684,-2.0686,-2.0688,-2.0687,-2.07,-2.0706,-2.07,-2.0697,-2.0702,-2.0709,-2.0706,-2.071,-2.0722,-2.0717,-2.0669,-2.0661,-2.0655,-2.065,-2.0723,-2.0723,-2.0769,-2.0769,-2.0769]}]]